Presure
179 175 180 180 184 185 192 195 200 202 213 179 161 162 166 170 169 167 182 185 190 180 182 173 183 196 174 187 188 196 188 168 165 151 157 164 153 136 157 156 160 160 149 146 85
167 181 182 176 177 193 178 192 204 200 215 211 214 209 209 177 176 180 179 181 190 204 198 191 203 199 197 204 182 193 206 176 184 167 171 131 145 186 184 167 161 161 158 163 145
188 181 186 178 187 178 183 192 193 195 206 184 209 223 254 224 283 271 193 184 191 215 210 212 206 205 207 204 198 210 192 193 181 177 182 158 95 160 155 172 178 158 158 170 156
191 173 178 188 180 192 181 164 173 199 184 159 215 210 171 266 248 274 236 233 266 217 215 216 220 217 209 211 219 219 203 197 68 182 181 179 112 142 140 152 147 172 166 168 156
172 169 169 167 176 183 188 176 176 180 201 220 219 210 238 256 250 272 286 554 424 397 445 250 229 215 230 216 210 223 218 197 185 197 176 135 164 158 164 116 155 155 173 150 178
182 172 174 180 168 167 156 192 178 180 197 195 213 201 237 243 234 279 323 501 480 473 468 457 373 297 253 225 219 214 203 153 193 187 194 188 185 181 99 135 148 170 175 169 187
173 159 175 179 156 168 182 163 193 185 199 184 204 202 229 249 258 264 327 481 481 470 455 469 470 467 431 259 246 231 218 216 197 193 179 186 204 206 112 165 174 177 159 168 176
178 180 173 177 174 174 165 182 188 178 200 189 207 215 232 253 252 256 318 471 461 454 440 384 339 527 258 476 542 342 240 222 217 198 195 185 185 176 186 153 135 193 74 173 93
179 173 176 164 174 173 169 181 187 176 197 195 203 202 220 244 240 247 317 472 453 442 433 434 291 480 502 519 447 403 427 307 221 211 202 198 183 178 187 185 170 184 167 101 184
168 164 171 163 171 170 171 180 183 170 180 195 185 196 225 250 234 237 287 300 462 444 435 441 447 472 467 504 503 550 528 243 432 232 211 207 198 185 184 195 179 177 130 187 153
163 157 172 174 172 173 173 180 174 174 180 191 198 208 225 247 244 240 261 271 275 449 453 465 462 457 430 474 472 492 499 424 416 438 236 211 201 195 189 191 179 175 97 83 178
163 167 167 170 174 174 170 179 169 176 173 190 196 209 225 233 230 237 88 145 365 443 449 466 442 428 414 446 488 488 498 476 404 416 429 278 214 190 195 196 199 182 182 181 182
169 167 171 174 174 171 171 179 174 174 190 193 197 199 109 169 231 146 240 259 307 402 421 429 433 428 262 436 475 498 495 496 407 387 406 247 264 196 194 135 184 188 188 180 124
165 167 170 172 169 164 180 181 178 175 185 190 191 198 214 135 241 136 241 245 262 302 423 414 419 426 428 442 455 475 504 502 423 373 369 355 284 266 204 196 187 195 133 187 188
174 174 167 171 168 168 199 198 176 197 183 192 185 200 201 237 151 236 242 238 245 273 298 402 402 402 439 444 456 487 482 507 456 372 367 381 408 275 258 206 196 188 194 191 185
163 174 172 176 182 201 173 197 177 192 184 187 185 187 215 221 227 237 226 233 230 244 276 298 416 408 419 418 475 465 464 147 418 387 358 372 374 330 270 251 216 199 190 194 183
174 172 193 190 186 192 194 190 189 196 189 196 193 193 220 221 249 243 239 236 201 230 245 284 298 421 408 405 421 322 445 116 419 424 364 360 362 390 278 259 244 227 203 175 189
199 195 188 193 186 192 187 204 220 220 193 192 197 188 221 222 259 241 231 222 234 239 235 244 269 296 420 410 396 413 429 459 418 396 355 364 391 365 397 273 248 234 220 200 192
191 191 185 189 190 175 204 196 217 205 191 189 196 188 220 220 236 226 237 226 222 234 233 233 245 263 287 397 404 405 417 412 440 402 391 353 343 361 363 375 268 240 231 218 206
188 189 186 185 187 190 197 211 213 198 187 183 181 190 223 218 231 224 225 228 227 222 243 236 232 245 284 290 307 410 411 397 429 415 401 389 361 335 351 357 334 256 238 228 219
208 210 207 195 192 192 196 207 211 203 186 177 181 191 215 219 216 206 214 222 231 224 221 229 233 228 241 291 280 298 406 430 408 402 433 407 409 337 339 353 357 339 250 231 224
194 197 201 213 207 191 194 204 211 206 188 177 176 192 216 228 213 213 213 241 219 214 221 218 234 232 228 238 281 269 289 356 418 388 402 411 402 398 330 334 353 356 371 251 228
195 197 197 206 211 198 196 200 210 198 190 188 179 189 218 229 221 212 209 213 233 222 211 223 224 225 242 241 231 263 307 299 306 416 382 396 406 404 393 315 329 339 360 364 251
197 180 194 204 206 203 196 197 207 195 189 182 183 182 193 224 222 217 203 216 210 208 221 214 220 221 227 222 226 232 258 295 305 295 407 387 415 398 411 402 296 316 339 349 365
203 201 193 196 204 212 199 197 206 188 186 179 187 186 190 225 223 219 211 211 199 211 205 198 211 215 215 219 216 216 236 260 273 310 292 381 420 424 393 394 404 359 303 334 353
217 199 200 207 201 209 209 201 206 181 180 186 188 194 184 174 222 219 224 211 201 195 205 199 191 205 207 216 213 214 218 237 255 272 268 304 398 435 434 386 383 373 325 320 329
216 225 209 216 199 211 219 206 199 180 185 188 195 195 168 231 222 215 223 216 202 198 196 207 192 191 203 207 204 215 213 218 243 236 245 317 309 313 419 427 402 402 378 357 311
Wind_Speed
8 9 7 11 15 19 21 25 31 37 39 57 60 67 75 82 86 92 103 113 123 118 122 105 118 136 102 126 117 126 109 90 93 93 97 100 101 91 93 88 86 81 70 70 41
12 11 13 17 20 17 26 23 22 29 26 32 38 51 63 91 92 103 104 106 114 135 133 119 137 126 122 135 99 111 127 99 118 101 103 95 92 107 103 95 90 82 84 79 72
6 9 8 17 16 24 21 19 22 24 30 55 39 42 54 59 78 63 118 120 120 135 134 139 126 131 134 131 113 129 98 127 110 103 104 102 47 103 86 96 101 86 85 84 77
6 10 9 17 15 20 22 38 38 33 41 50 37 39 72 80 64 82 79 107 110 138 138 135 138 141 133 137 149 146 110 123 19 105 106 104 46 96 75 89 85 98 92 83 76
14 17 19 25 21 23 27 25 29 33 46 57 57 54 79 84 79 91 89 39 55 59 48 134 152 128 156 141 137 148 144 122 110 123 99 81 103 97 98 60 97 95 96 76 93
12 18 19 21 27 28 39 44 35 36 51 39 60 53 86 87 79 91 93 48 43 38 37 37 73 122 158 150 143 142 134 89 126 124 127 117 109 107 44 80 83 103 97 92 91
21 28 24 27 33 28 42 35 53 42 60 44 66 58 90 94 90 95 95 52 41 35 33 32 27 27 42 142 167 158 142 146 127 135 114 126 137 118 67 107 105 106 97 97 94
22 23 25 32 35 38 34 47 57 44 67 57 73 82 93 94 95 100 104 49 43 37 36 26 30 13 33 29 25 126 167 150 155 140 136 129 120 105 123 92 78 108 29 101 42
23 26 29 33 39 42 41 51 60 46 70 70 74 78 90 98 101 98 101 48 41 35 34 33 13 17 14 12 22 74 74 135 163 149 150 138 122 114 130 110 100 107 108 56 102
25 30 33 36 40 44 47 53 59 45 55 73 64 80 91 93 93 94 105 67 46 40 36 33 27 22 15 8 7 6 28 131 84 164 142 143 138 134 129 126 104 109 74 113 88
28 33 36 39 42 47 52 57 55 55 68 74 80 86 93 97 98 95 103 81 23 46 41 31 25 21 16 11 6 12 23 72 79 85 152 153 142 146 138 127 99 105 46 55 109
32 36 38 42 46 49 51 58 56 63 62 76 82 86 93 92 95 96 10 23 86 51 48 36 31 24 18 14 8 12 21 38 76 79 88 143 158 136 143 140 136 118 120 118 118
34 37 41 45 47 49 52 58 58 64 69 75 77 81 20 54 90 37 95 103 108 71 53 45 37 30 10 18 7 10 17 24 68 75 77 104 145 151 138 91 121 127 132 119 71
39 41 45 47 48 48 59 57 59 63 68 72 71 79 90 35 94 37 97 99 109 105 51 53 48 39 31 23 15 4 13 21 49 72 82 106 138 143 153 152 133 137 89 132 128
41 43 43 47 49 53 56 57 58 61 68 71 70 81 87 90 45 95 98 97 101 108 102 57 49 49 34 29 19 11 12 26 28 67 75 76 74 139 141 150 151 136 139 134 120
38 44 46 50 50 52 54 57 59 64 64 70 71 78 88 87 91 94 95 98 95 98 105 102 47 44 38 37 21 13 12 29 31 54 69 70 75 114 139 141 145 149 134 138 121
42 43 42 46 50 52 55 57 57 61 66 69 76 76 82 83 86 82 88 86 66 88 97 103 99 39 43 40 36 9 10 20 28 26 58 65 69 62 135 136 142 144 147 121 134
38 40 44 47 48 52 55 58 61 60 63 68 74 77 77 81 84 84 84 83 87 90 87 93 100 97 38 35 39 24 19 20 24 32 52 54 43 65 57 136 138 134 138 143 140
38 41 42 47 50 47 58 55 57 54 59 65 69 74 77 79 79 82 84 82 82 87 87 85 90 98 94 47 36 30 17 12 23 25 31 52 60 61 66 65 133 134 135 137 141
39 40 44 46 49 52 56 60 55 54 58 62 65 71 73 73 75 79 79 82 82 84 89 87 84 88 101 90 87 34 24 12 11 27 27 30 45 63 62 64 94 132 135 133 133
44 46 46 47 49 53 57 58 53 50 57 59 64 72 72 69 72 78 79 78 84 84 82 84 83 80 85 97 89 83 32 10 4 6 12 25 25 57 61 60 61 87 133 132 133
44 46 48 52 51 52 54 57 51 50 54 58 61 69 69 66 68 69 73 77 76 78 80 79 82 82 77 79 95 85 79 53 7 13 7 17 24 29 56 59 57 60 60 132 137
43 44 49 52 53 51 53 55 49 49 51 56 60 66 70 67 61 64 69 70 71 72 76 78 80 79 81 80 75 86 81 75 70 2 14 12 15 30 31 55 57 59 57 62 137
47 48 51 50 50 49 51 52 49 48 52 55 60 64 67 67 61 60 66 66 68 72 71 74 76 76 77 74 73 73 78 78 70 67 14 12 16 20 30 32 55 56 56 59 58
46 45 49 48 50 49 49 49 47 50 54 56 59 58 65 64 61 57 59 64 68 68 69 69 73 74 72 72 68 65 70 73 72 66 63 26 12 18 19 27 31 40 55 54 55
44 45 47 49 47 49 49 49 47 49 53 56 59 61 60 59 60 60 64 60 64 65 66 65 64 69 69 68 67 65 65 67 69 75 64 59 21 11 18 21 26 29 49 52 52
47 45 44 46 47 48 46 45 44 48 51 54 58 62 52 66 60 62 66 62 59 61 64 63 60 60 63 63 59 63 61 62 65 61 56 59 55 49 18 16 28 42 41 48 50
Wind_Direction
324 300 285 266 262 259 262 262 261 258 264 254 259 257 253 251 249 250 242 237 235 239 240 246 240 234 242 240 240 238 234 230 232 227 226 226 229 243 234 239 236 234 238 236 231
324 297 281 279 282 286 276 289 288 272 292 271 277 268 263 251 253 249 256 255 247 237 237 247 237 240 243 236 246 242 237 232 235 227 235 246 239 233 232 233 239 235 237 236 240
321 307 302 283 309 283 278 315 308 290 309 262 281 286 326 274 310 299 250 256 256 245 243 242 247 244 240 244 250 241 247 234 235 229 227 231 228 231 241 233 235 239 240 238 236
359 299 295 335 317 332 288 281 288 329 285 305 319 302 289 333 323 325 267 255 258 249 252 251 246 243 246 243 240 242 247 238 205 238 234 229 236 246 247 240 246 235 235 238 237
307 301 301 291 313 341 336 292 287 299 339 340 339 331 337 338 335 328 324 336 291 285 298 252 250 256 241 246 245 240 243 246 249 241 243 248 237 238 231 240 238 240 235 233 233
325 310 311 329 302 309 300 342 309 311 341 335 345 331 342 342 339 332 337 336 329 318 312 295 253 244 242 247 247 243 242 241 244 244 244 246 240 235 231 245 234 234 232 237 233
315 324 333 341 311 319 343 317 343 336 344 336 345 339 345 339 337 344 347 342 341 333 324 325 297 270 249 240 238 242 245 239 242 240 244 244 241 242 257 238 234 233 239 232 231
336 345 335 348 341 341 327 342 345 341 346 350 345 353 344 342 348 352 355 348 347 342 336 316 294 305 251 245 255 230 236 241 236 237 236 239 242 240 241 244 247 233 227 231 227
344 342 346 341 347 344 340 345 347 347 349 348 355 358 349 348 355 353 1 0 356 347 339 335 276 336 329 294 244 235 218 230 236 237 234 236 238 240 242 237 233 237 240 231 231
341 339 348 343 346 345 343 347 351 345 352 350 360 357 349 349 359 357 5 8 4 358 352 349 344 358 344 347 273 230 224 232 218 233 235 234 235 238 240 240 234 236 241 239 231
341 345 346 346 348 347 347 347 351 350 352 351 354 352 353 354 357 1 7 9 336 7 4 3 1 357 353 333 254 220 206 211 210 220 229 233 234 234 238 239 232 233 191 237 233
342 346 347 349 349 348 347 349 351 353 350 352 352 356 354 358 1 3 312 343 19 20 20 20 22 19 7 356 268 230 208 210 209 212 219 220 231 233 234 234 238 238 238 236 234
344 349 346 349 350 351 350 350 349 353 350 349 353 2 359 359 359 358 10 16 19 20 21 19 23 26 335 16 349 230 209 206 209 208 213 210 223 229 232 232 233 234 236 236 233
350 347 348 349 353 355 347 350 352 349 355 350 3 3 0 358 359 357 11 18 20 21 18 19 22 22 23 24 28 13 190 186 197 207 208 213 215 218 226 229 231 235 230 237 238
341 342 350 349 353 352 348 349 355 353 356 353 4 2 8 2 354 5 11 16 20 22 24 26 22 22 24 24 36 57 148 158 166 208 209 211 218 217 219 226 231 232 236 237 237
352 343 345 344 347 347 350 352 356 360 354 353 3 7 356 1 3 7 11 14 18 24 25 27 26 27 35 37 34 62 136 240 178 205 209 213 213 213 217 221 227 232 232 237 237
340 344 351 349 345 349 352 353 354 1 356 353 354 5 356 2 8 15 13 13 17 24 28 28 29 24 27 35 38 44 108 235 171 174 211 211 211 218 215 219 222 226 230 228 236
340 343 341 344 347 353 353 356 7 4 359 355 355 4 359 4 17 15 14 11 16 22 28 31 29 33 28 34 34 45 72 165 182 203 215 214 214 215 218 216 221 225 227 230 234
340 342 344 346 348 354 356 357 6 4 0 358 357 0 1 4 14 10 17 13 15 20 23 28 32 31 29 31 35 36 43 79 157 182 211 215 214 218 218 220 217 222 225 227 230
339 342 343 345 349 352 355 3 5 2 0 0 3 2 7 7 15 12 13 14 13 18 22 23 28 31 31 30 33 40 43 47 118 185 203 221 221 217 220 223 219 218 223 226 228
345 345 343 343 346 350 357 1 4 1 359 1 4 1 4 8 7 5 8 12 18 15 17 20 23 28 30 29 30 31 46 97 106 119 184 193 207 221 221 222 223 222 220 223 227
343 344 345 347 346 349 354 358 3 2 358 1 5 360 3 12 6 6 8 21 12 13 14 17 18 24 26 31 30 31 28 34 149 20 227 204 216 225 223 224 226 226 224 221 225
343 343 343 347 347 346 351 356 2 358 357 356 358 359 4 10 9 7 6 9 19 14 12 14 16 18 22 24 29 30 26 26 28 343 7 277 237 221 231 226 227 227 226 225 222
344 348 343 347 344 344 349 354 357 356 355 358 356 359 360 6 7 8 4 9 8 10 12 12 13 14 18 21 23 25 28 26 23 23 353 358 264 249 231 225 225 228 229 228 228
334 337 339 343 342 340 345 353 356 353 352 353 354 360 357 5 7 8 3 7 7 7 9 11 10 11 14 16 17 21 20 27 26 20 18 10 277 259 245 236 221 229 229 233 231
327 335 336 337 337 338 339 353 354 353 350 350 351 354 359 5 7 8 13 4 3 5 5 7 9 7 11 13 13 15 16 17 23 24 24 14 354 282 246 249 247 244 235 232 231
328 328 332 335 339 336 337 347 352 350 348 349 351 354 5 1 7 5 13 9 2 1 1 3 3 8 6 5 8 8 12 12 16 13 15 9 8 10 296 262 237 236 245 243 233